FW7632 Weather Reports


time (UTC)temp
C
wind
direction
speed
KPH
gust
KPH
rain 1hr
cm
rain 24hr
cm
rain mn
cm
humidity
%
barometer
mb
20260506170059 15 277 6.4 14.5 0.00 0.91 0.66 1 1004.0
20260506164554 15 255 3.2 11.3 0.00 0.91 0.66 1 1004.1
20260506163042 15 245 3.2 16.1 0.03 0.91 0.66 1 1004.0
20260506161535 15 242 6.4 14.5 0.05 0.91 0.66 1 1003.9
20260506160030 15 251 3.2 16.1 0.08 0.91 0.66 1 1004.1
20260506154526 15 267 1.6 11.3 0.10 0.91 0.66 1 1004.2
20260506153021 15 274 3.2 16.1 0.08 0.89 0.64 1 1004.0
20260506151523 15 214 4.8 12.9 0.08 0.86 0.61 1 1004.4
20260506150018 15 242 1.6 11.3 0.05 0.84 0.58 1 1004.1
20260506144513 15 171 3.2 9.7 0.05 0.81 0.56 1 1004.1
20260506143010 14 26 0.0 4.8 0.08 0.81 0.56 1 1004.1
20260506141505 14 26 4.8 8.0 0.10 0.79 0.53 1 1004.1
20260506140001 13 348 1.6 4.8 0.18 0.79 0.53 1 1004.2
20260506134556 13 348 0.0 3.2 0.25 0.76 0.51 1 1004.3
20260506133103 13 221 1.6 4.8 0.30 0.71 0.48 1 1004.6
20260506131548 13 221 0.0 4.8 0.30 0.69 0.43 1 1005.0
20260506130044 13 221 1.6 8.0 0.25 0.61 0.36 1 1005.1
20260506124541 13 173 3.2 9.7 0.18 0.51 0.25 1 1005.2
20260506123041 13 218 1.6 8.0 0.10 0.43 0.18 1 1004.8
20260506121531 12 94 0.0 3.2 0.08 0.46 0.13 1 1004.6
20260506120036 12 90 1.6 4.8 0.05 0.43 0.10 1 1004.6
20260506114525 12 89 0.0 1.6 0.03 0.41 0.08 1 1005.1
20260506113019 12 89 0.0 1.6 0.03 0.41 0.08 1 1005.1
20260506111515 12 89 0.0 3.2 0.03 0.38 0.05 1 1005.1
20260506110010 12 89 0.0 1.6 0.03 0.38 0.05 1 1005.0
20260506104505 12 88 0.0 1.6 0.03 0.38 0.05 1 1005.1
20260506103004 12 88 0.0 1.6 0.05 0.38 0.05 1 1005.1
20260506101557 12 88 0.0 1.6 0.03 0.36 0.03 1 1004.8
20260506100054 12 88 0.0 3.2 0.03 0.36 0.03 1 1004.6
20260506094549 12 88 0.0 3.2 0.03 0.36 0.03 1 1004.7
20260506093048 12 88 0.0 3.2 0.00 0.33 0.00 1 1004.7
20260506091541 12 88 0.0 6.4 0.00 0.33 0.00 1 1004.9
20260506090035 12 88 3.2 4.8 0.00 0.33 0.00 1 1004.9
20260506084532 12 88 0.0 3.2 0.00 0.33 0.00 1 1005.3
20260506083026 12 88 0.0 3.2 0.00 0.33 0.00 1 1005.4
20260506081522 12 88 0.0 3.2 0.00 0.33 0.00 1 1005.2
20260506073009 12 88 0.0 3.2 0.00 0.33 0.00 1 1005.1
20260506071507 12 88 0.0 9.7 0.00 0.33 0.00 1 1005.1
20260506070117 12 101 0.0 4.8 0.00 0.33 0.00 1 1005.2
20260506061546 12 106 0.0 14.5 0.00 0.33 0.00 1 1005.8
20260506044524 13 73 1.6 8.0 0.00 0.33 0.00 1 1006.9
20260506043017 13 86 3.2 9.7 0.00 0.33 0.00 1 1006.8
20260506041510 13 109 1.6 9.7 0.00 0.33 0.33 1 1006.9
20260506040006 13 86 3.2 12.9 0.00 0.33 0.33 1 1007.1
20260506034502 13 90 4.8 9.7 0.00 0.33 0.33 1 1007.3
20260506033103 13 133 6.4 12.9 0.00 0.33 0.33 1 1007.6
20260506031601 14 87 3.2 9.7 0.00 0.33 0.33 1 1007.3
20260506030108 14 76 4.8 11.3 0.00 0.33 0.33 1 1007.3
20260506024545 15 36 1.6 6.4 0.00 0.33 0.33 1 1007.3
20260506024515 15 36 1.6 8.0 0.00 0.33 0.33 1 1007.3
20260506023040 16 346 9.7 17.7 0.00 0.33 0.33 1 1007.4
20260506021536 16 341 0.0 4.8 0.00 0.33 0.33 1 1006.9
20260506020031 16 341 3.2 12.9 0.00 0.33 0.33 1 1006.8
20260506014527 16 48 3.2 9.7 0.00 0.33 0.33 1 1006.6
20260506013024 16 349 0.0 3.2 0.00 0.33 0.33 1 1006.4
20260506011520 17 348 3.2 12.9 0.00 0.33 0.33 1 1006.0
20260506010014 16 348 4.8 12.9 0.00 0.33 0.33 1 1006.0
20260506004509 16 203 1.6 3.2 0.00 0.33 0.33 1 1005.4
20260506003005 16 203 0.0 3.2 0.00 0.33 0.33 1 1005.1
20260506001604 17 203 0.0 0.0 0.00 0.33 0.33 1 1005.0
20260506000056 17 203 0.0 3.2 0.00 0.33 0.33 1 1004.9
20260505234611 17 203 1.6 3.2 0.00 0.33 0.33 1 1004.8
20260505233046 17 203 0.0 1.6 0.00 0.33 0.33 1 1004.9
20260505231543 17 203 0.0 3.2 0.03 0.33 0.33 1 1004.9
20260505230038 18 203 1.6 3.2 0.03 0.33 0.33 1 1004.7
20260505224534 18 203 1.6 3.2 0.03 0.33 0.33 1 1004.7
20260505223029 18 203 0.0 4.8 0.03 0.33 0.33 1 1004.6
20260505221525 19 202 0.0 8.0 0.00 0.30 0.30 1 1004.9
20260505220020 19 201 0.0 3.2 0.00 0.30 0.30 1 1004.1
20260505214520 20 199 0.0 4.8 0.00 0.30 0.30 1 1004.2
20260505213012 19 200 1.6 4.8 0.00 0.30 0.30 1 1003.8
20260505211508 19 200 1.6 4.8 0.00 0.30 0.30 1 1004.0
20260505210008 18 200 3.2 6.4 0.00 0.30 0.30 1 1003.9
20260505204602 18 207 1.6 4.8 0.15 0.30 0.30 1 1004.0
20260505203055 17 207 0.0 4.8 0.20 0.30 0.30 1 1004.3
20260505201602 18 34 1.6 8.0 0.20 0.30 0.30 1 1004.4
20260505200100 19 226 3.2 30.6 0.20 0.30 0.30 1 1004.3
20260505194542 23 280 16.1 40.2 0.03 0.13 0.13 50 1004.6
20260505193037 26 238 8.0 22.5 0.00 0.10 0.10 35 1002.1
20260505191533 26 232 11.3 24.1 0.00 0.10 0.10 32 1002.0
20260505190037 26 217 11.3 33.8 0.00 0.10 0.10 34 1002.1
20260505184527 26 220 12.9 33.8 0.03 0.10 0.10 37 1002.5
20260505183038 24 234 9.7 17.7 0.03 0.10 0.10 44 1002.6
20260505181515 23 263 3.2 12.9 0.03 0.10 0.10 50 1003.2
20260505180010 23 252 11.3 27.4 0.03 0.10 0.10 49 1003.6
20260505174505 24 247 6.4 19.3 0.00 0.08 0.08 47 1003.6
20260505173002 25 216 8.0 24.1 0.00 0.08 0.08 42 1003.8
20260505171556 26 212 11.3 20.9 0.00 0.08 0.08 39 1003.8